Temperature
17 17 17 17 17 17 17 17 17 17 17 17 17 17 17 17 17 17 17 17 17 17 17 17 17 16 16 16 16 16 16 16 16 16 16 16 16 16 16 16 16 16 15
17 17 17 17 17 17 17 17 17 17 17 17 17 17 17 17 17 16 16 17 17 17 17 16 16 16 16 16 16 16 16 16 16 16 16 16 16 16 16 16 16 16 15
17 17 17 17 17 17 17 17 17 17 17 17 17 17 17 17 17 16 16 16 16 17 17 17 16 16 16 16 16 16 16 16 16 16 16 16 16 16 16 16 16 16 15
17 17 17 17 17 17 17 17 17 17 17 17 17 17 17 17 17 16 16 16 16 16 16 17 16 16 16 16 16 16 16 16 16 16 16 16 16 16 16 16 16 16 15
18 17 17 17 17 17 17 17 17 17 17 17 17 17 17 17 17 17 17 16 16 16 16 16 16 16 16 16 16 16 16 16 16 16 16 16 16 16 16 16 16 16 15
18 17 17 17 17 17 17 17 17 17 17 17 18 18 17 17 17 17 17 17 16 16 16 16 16 16 16 16 16 16 16 16 16 16 16 16 16 16 15 15 15 15 15
17 18 17 17 17 17 17 17 17 17 17 17 17 17 17 17 17 17 17 17 17 17 16 16 16 16 16 16 16 16 16 16 16 16 16 16 16 16 15 15 15 15 15
17 17 17 17 17 17 17 17 17 17 17 17 17 18 18 18 17 18 17 17 17 17 17 17 16 16 16 16 16 16 16 16 16 16 16 16 16 15 15 15 15 15 15
17 17 17 17 17 17 17 17 17 17 17 17 17 18 19 19 19 18 18 17 17 17 17 17 17 16 16 16 16 16 16 16 16 16 16 16 15 15 15 15 15 15 15
17 17 17 17 17 17 17 17 17 17 17 17 17 17 18 18 19 19 18 18 17 17 17 17 17 17 16 16 16 16 16 16 16 16 16 16 15 15 15 15 15 15 15
17 17 17 17 17 17 17 17 17 17 17 17 17 17 17 17 18 18 19 18 18 18 17 17 17 17 17 16 16 16 17 16 16 16 16 16 16 15 15 15 15 15 15
17 17 17 17 17 17 17 17 17 17 17 17 17 17 17 18 18 18 19 18 19 18 18 17 17 17 17 17 17 17 17 16 16 16 16 16 16 16 16 15 15 15 15
17 17 17 17 17 17 17 17 17 17 17 16 17 17 17 17 18 18 18 19 19 19 18 18 17 17 17 17 17 17 17 17 16 16 16 16 16 16 16 16 15 15 15
17 17 17 17 17 17 17 17 17 16 16 16 16 16 17 17 17 18 18 18 18 19 18 18 18 17 17 17 17 17 16 17 17 16 16 16 16 16 16 16 16 16 15
17 17 17 17 17 17 17 17 16 16 16 16 16 16 17 17 17 17 17 17 17 18 19 18 18 18 17 17 17 16 16 16 17 16 16 16 16 16 16 16 16 16 15
17 17 17 17 17 17 17 17 16 16 17 17 17 16 16 16 17 16 17 17 17 17 18 18 17 17 17 17 16 16 16 16 17 16 16 16 16 16 16 16 16 16 15
17 17 17 17 17 17 17 17 16 16 17 16 16 16 16 16 16 16 16 16 16 16 17 17 17 17 16 16 16 16 16 16 16 16 16 16 16 16 16 16 15 15 15
17 17 17 17 17 16 16 16 16 16 16 16 16 16 16 16 16 16 16 16 16 16 16 16 16 16 16 16 16 16 16 16 16 16 16 16 16 16 16 16 15 15 15
17 16 16 16 16 16 16 16 16 16 16 16 16 16 16 16 16 16 16 16 16 16 16 16 16 16 16 16 15 15 15 16 16 16 16 16 16 16 16 15 15 15 15
16 16 16 16 16 16 16 16 16 16 16 16 16 16 16 16 16 16 16 16 15 15 15 15 15 16 15 15 15 15 15 15 15 15 15 15 15 15 15 15 15 15 14
16 16 16 16 16 16 16 16 16 16 16 16 16 16 15 15 16 15 15 15 15 15 15 15 15 15 15 15 15 15 15 15 15 15 15 15 15 15 15 14 14 14 14
16 16 16 16 16 15 15 16 15 15 15 15 15 15 15 15 15 15 15 15 15 14 14 14 14 14 14 14 14 14 14 14 14 14 14 14 14 14 14 14 14 14 13
15 15 15 15 15 15 15 15 15 15 15 15 15 15 14 14 14 14 14 14 14 14 14 14 13 13 13 13 13 13 13 13 13 13 13 13 13 13 13 13 13 13 13
15 15 15 15 15 15 15 15 15 15 14 14 14 14 14 14 14 14 13 13 13 13 13 13 13 13 13 13 12 12 12 12 13 13 12 12 13 13 13 12 12 12 12
15 15 14 14 14 14 14 14 14 14 14 14 14 13 13 13 13 13 13 13 12 12 12 12 12 12 12 12 12 12 11 12 12 12 12 12 12 12 12 12 12 11 11
14 14 14 14 14 13 13 13 13 13 13 13 13 13 13 13 13 13 12 12 12 12 12 11 11 11 11 11 11 11 11 11 11 11 11 11 11 11 11 11 11 11 11
Wind_Speed
6 6 5 5 5 5 6 5 5 5 4 5 4 5 4 3 4 4 9 10 8 8 8 8 8 8 7 7 7 7 7 7 7 7 7 7 7 7 7 6 6 6 5
6 6 6 5 5 5 4 4 5 5 5 4 4 4 4 4 4 3 6 10 9 8 8 8 8 8 8 8 8 8 8 8 8 7 7 7 7 7 7 7 6 6 6
7 6 5 6 5 5 5 4 5 5 4 4 4 4 4 4 5 4 4 6 9 10 9 8 8 8 9 8 8 8 8 8 9 8 8 8 8 8 8 8 7 7 7
8 7 5 6 6 6 6 5 5 5 4 4 4 4 4 5 5 6 6 5 6 7 11 11 10 9 9 9 9 9 9 9 9 10 9 9 9 9 9 9 9 8 8
9 7 5 5 7 6 5 5 5 5 4 4 4 4 4 4 5 6 5 6 6 6 7 12 12 11 10 10 10 10 10 10 11 11 11 11 11 11 11 11 10 10 10
10 8 7 7 7 6 5 5 4 4 4 4 4 4 4 4 5 5 6 6 7 7 8 7 10 12 13 12 11 11 11 11 11 12 12 12 12 12 12 12 12 12 11
10 9 7 7 7 6 6 7 6 7 6 4 4 4 5 6 6 5 6 6 7 8 7 7 8 7 10 15 14 13 12 12 12 12 13 13 13 13 14 14 14 13 13
11 10 8 7 8 6 7 7 7 6 5 6 5 4 4 5 6 7 6 7 7 7 8 9 9 8 8 8 12 16 14 13 13 12 13 14 14 14 15 14 14 15 15
12 10 10 9 8 8 7 8 8 8 6 6 6 4 4 4 4 6 7 7 6 6 7 8 10 10 10 9 8 14 15 15 14 13 13 13 14 15 15 15 15 15 15
12 12 11 10 9 8 7 9 8 7 7 6 6 6 6 3 3 4 6 7 7 8 8 7 8 9 10 10 8 7 12 14 14 14 13 13 14 14 15 16 16 16 16
11 12 12 11 10 9 8 8 7 9 8 8 6 6 7 5 7 5 4 4 6 7 7 8 7 8 9 10 9 11 13 14 14 14 14 14 14 14 15 15 15 16 16
9 12 12 11 10 9 9 9 9 10 8 8 7 7 6 6 6 6 6 6 5 5 6 6 7 7 8 10 11 8 12 14 14 15 15 15 15 15 15 15 15 16 16
9 11 12 11 10 10 9 9 9 9 9 9 9 8 7 7 6 6 6 6 5 5 5 7 7 7 7 8 8 9 11 14 15 15 15 16 16 16 15 15 15 16 16
10 11 12 12 12 11 10 9 9 10 9 9 11 10 8 8 6 6 6 6 6 6 6 6 5 6 6 7 6 9 10 14 15 15 16 16 16 16 16 16 16 16 16
9 11 12 12 11 11 10 10 9 10 9 10 10 10 9 8 7 7 6 6 7 8 7 5 6 5 6 7 5 8 9 10 14 15 16 16 16 16 16 16 16 16 16
10 10 11 11 11 11 11 11 10 10 10 9 8 9 9 8 7 6 6 7 7 8 8 5 4 5 4 6 6 9 10 9 13 15 15 15 15 15 15 15 16 16 16
9 10 10 11 11 11 11 10 10 9 10 10 10 10 10 9 7 6 6 7 7 7 8 8 5 4 4 7 5 7 10 10 10 15 15 15 15 15 15 16 16 15 15
8 9 9 10 10 11 10 11 11 10 9 10 10 9 9 8 8 7 6 7 7 7 8 9 7 6 6 7 6 7 8 9 9 10 14 14 14 15 15 15 15 15 15
7 7 8 8 9 10 10 10 10 9 9 9 8 9 8 8 7 6 6 7 6 7 7 7 8 5 6 6 6 7 8 7 10 8 12 14 14 14 14 15 15 15 15
6 6 6 6 6 7 8 9 9 8 8 8 7 7 6 6 6 6 5 6 6 6 6 7 7 6 6 5 5 7 7 7 7 8 6 7 11 14 16 16 16 15 15
5 5 5 5 5 5 5 7 7 7 7 6 5 5 4 3 2 3 4 4 5 5 5 6 6 6 5 4 5 6 7 6 6 6 6 7 7 8 9 13 15 14 13
4 4 5 4 4 3 2 3 4 4 4 4 4 4 4 4 4 4 2 0 2 4 4 5 5 5 5 5 5 6 6 6 6 3 5 7 6 7 6 8 6 7 9
4 4 4 4 3 2 4 3 2 3 3 2 3 2 2 1 2 3 4 5 2 1 3 4 4 5 5 4 5 6 5 6 6 6 5 7 6 7 7 7 5 7 8
4 4 4 4 4 4 4 3 3 3 2 1 1 2 1 1 0 1 2 2 2 1 1 2 2 4 3 4 4 5 6 6 7 6 5 7 7 7 7 7 6 9 10
6 5 5 5 5 5 6 4 3 3 3 3 3 3 2 1 3 2 2 2 1 1 3 3 2 1 2 3 4 4 5 6 6 5 4 6 7 8 8 8 7 10 12
6 7 7 7 6 6 8 6 3 4 4 4 5 5 8 6 6 4 1 1 0 1 1 1 2 3 2 2 2 3 5 6 6 6 4 5 7 8 8 7 6 7 9
Wind_Direction
170 156 154 160 166 155 165 178 175 160 168 171 173 158 160 155 134 136 135 153 165 171 171 170 172 171 171 172 172 171 168 165 164 164 164 164 164 163 163 162 163 161 160
168 166 168 170 171 173 167 176 168 173 186 172 181 165 177 159 148 163 151 157 172 181 185 184 185 185 184 185 185 185 183 182 181 181 179 180 182 182 182 182 182 183 184
176 183 177 182 179 173 171 186 178 183 186 185 184 179 176 175 159 172 169 167 172 184 193 196 196 196 195 194 194 196 196 196 195 196 196 196 198 199 199 199 199 200 202
189 197 191 190 178 189 188 180 199 198 195 198 185 194 172 169 174 182 184 186 188 182 186 196 203 205 205 207 207 206 205 205 206 208 209 209 210 212 211 211 211 212 214
194 205 203 189 192 197 201 206 185 209 195 201 193 187 191 187 180 193 198 201 195 201 190 180 197 206 211 214 215 215 213 213 215 217 218 219 220 220 220 219 220 221 223
198 208 206 198 207 202 204 212 191 206 208 206 220 182 193 195 202 195 209 207 204 205 210 195 196 201 208 215 219 220 219 219 220 221 222 224 225 225 225 225 226 227 229
201 208 217 197 213 209 211 207 205 199 209 204 215 206 203 206 208 205 213 216 209 210 215 210 218 214 200 207 214 219 223 225 225 225 225 226 227 227 227 228 230 231 233
206 204 212 212 210 211 212 214 214 222 207 201 222 219 213 203 213 212 206 214 220 210 213 213 217 221 235 213 202 210 221 226 228 228 226 226 227 228 230 229 232 233 234
208 215 210 216 212 217 210 213 210 222 220 210 222 232 236 226 202 197 209 215 218 223 225 216 217 217 224 232 215 203 212 222 227 230 229 228 228 230 232 231 232 233 235
211 212 215 215 215 219 211 218 212 221 226 222 215 235 259 300 251 206 203 204 212 222 232 233 224 218 220 227 225 219 208 220 226 229 231 230 230 232 234 233 234 234 236
213 213 214 215 215 220 219 227 215 225 224 231 226 221 229 233 246 256 237 217 214 220 219 226 235 232 223 228 226 220 206 219 226 230 230 231 231 233 235 235 235 237 239
214 214 215 215 217 220 217 220 221 221 230 233 238 234 230 232 236 239 246 239 234 225 218 226 233 232 229 230 228 202 204 218 227 231 232 233 236 237 237 238 239 241 243
214 212 215 214 218 218 220 222 223 229 224 227 232 236 237 241 247 248 257 260 259 245 221 231 229 232 233 233 228 195 215 221 227 231 234 236 238 240 240 240 242 243 246
218 214 212 215 218 216 217 216 225 225 225 228 233 235 242 242 242 245 251 261 260 256 236 239 233 233 238 241 228 201 230 217 226 232 235 236 237 237 238 240 243 246 248
218 216 214 214 215 215 218 218 228 228 225 228 231 226 233 239 239 243 246 253 263 269 262 230 236 234 240 246 222 234 243 216 220 231 235 237 237 237 238 240 244 246 249
216 216 213 213 214 215 216 220 226 227 227 227 230 233 231 235 233 238 241 245 251 262 271 271 247 257 258 266 223 239 243 224 222 229 233 234 236 238 239 242 244 245 247
213 214 213 212 212 213 215 217 225 224 226 226 225 225 227 234 231 232 234 240 243 248 258 266 267 260 246 265 261 251 251 247 237 217 222 229 234 237 239 241 243 243 245
211 211 212 212 212 213 214 218 223 222 222 224 224 223 225 222 222 235 239 243 246 248 254 262 268 263 245 249 256 258 261 254 256 213 211 225 232 235 237 238 241 244 246
205 208 209 213 215 215 215 217 220 221 222 224 223 221 223 221 222 229 236 245 249 247 249 259 263 262 259 253 254 255 259 265 265 239 210 218 227 232 235 237 239 243 245
200 203 207 211 215 219 220 220 218 218 221 222 220 217 219 217 219 226 230 241 249 254 252 257 264 263 258 255 255 261 260 249 258 264 258 244 226 227 233 234 237 241 245
197 197 200 204 210 219 227 219 215 217 216 212 207 206 206 194 197 229 241 243 248 252 256 259 264 270 273 279 274 278 280 279 268 265 267 262 249 247 240 234 232 238 246
181 178 181 184 187 208 157 178 202 204 200 198 196 197 195 185 175 170 156 322 296 263 266 271 273 278 285 285 289 288 287 283 278 275 274 273 268 267 262 260 219 221 242
146 145 144 139 132 83 77 111 152 186 193 205 209 211 217 202 178 203 182 186 195 252 271 275 280 289 291 295 291 284 284 288 287 294 284 276 270 268 269 265 194 214 237
123 118 113 109 103 71 65 89 132 170 178 177 149 135 136 111 37 234 207 184 180 184 222 242 279 293 312 321 300 286 287 277 268 263 271 280 285 282 283 279 221 221 236
107 104 100 93 90 69 52 66 106 122 109 97 88 72 77 88 16 316 203 181 178 186 129 124 104 46 23 1 328 300 301 293 292 292 280 279 288 290 286 278 259 221 233
107 100 86 77 77 70 52 52 86 113 107 102 90 76 58 51 37 18 112 158 207 312 315 158 178 212 244 255 259 299 304 297 297 296 313 301 296 302 295 285 288 281 265
Height
1568 1569 1570 1572 1574 1575 1576 1577 1579 1580 1581 1582 1583 1584 1584 1585 1586 1587 1586 1586 1587 1588 1589 1589 1590 1591 1592 1593 1593 1594 1595 1596 1596 1597 1597 1598 1598 1599 1600 1600 1600 1601 1601
1567 1569 1570 1571 1574 1575 1577 1577 1579 1580 1581 1582 1583 1583 1584 1585 1585 1586 1587 1586 1587 1588 1588 1589 1590 1591 1591 1592 1593 1594 1595 1595 1596 1597 1597 1598 1598 1599 1599 1600 1600 1601 1601
1566 1568 1570 1571 1573 1575 1575 1577 1578 1579 1580 1581 1582 1583 1583 1584 1585 1585 1586 1587 1587 1587 1588 1589 1589 1590 1591 1592 1592 1593 1594 1595 1595 1596 1597 1597 1598 1598 1599 1599 1600 1600 1601
1565 1567 1569 1571 1572 1574 1575 1576 1578 1579 1580 1581 1582 1582 1583 1583 1584 1585 1586 1586 1587 1588 1588 1588 1589 1589 1590 1591 1591 1592 1593 1593 1594 1595 1596 1596 1597 1597 1598 1598 1599 1599 1600
1564 1566 1568 1570 1571 1573 1574 1576 1577 1578 1579 1580 1581 1581 1582 1583 1583 1584 1585 1586 1586 1587 1588 1587 1588 1588 1589 1589 1590 1591 1591 1592 1593 1593 1594 1595 1595 1596 1596 1597 1597 1598 1598
1562 1564 1567 1568 1570 1572 1573 1574 1575 1576 1577 1578 1580 1581 1581 1582 1582 1583 1584 1584 1585 1586 1587 1587 1587 1587 1587 1588 1588 1589 1590 1590 1591 1591 1592 1592 1593 1594 1594 1595 1595 1596 1596
1560 1562 1565 1566 1568 1570 1571 1573 1574 1575 1576 1577 1579 1579 1580 1580 1581 1581 1582 1583 1584 1584 1585 1585 1586 1586 1586 1586 1586 1587 1588 1588 1589 1589 1590 1590 1591 1591 1592 1592 1593 1593 1593
1557 1560 1562 1564 1566 1567 1569 1570 1571 1574 1575 1576 1577 1578 1578 1580 1579 1580 1580 1580 1582 1582 1583 1583 1583 1584 1585 1585 1585 1585 1586 1586 1586 1587 1587 1588 1588 1588 1589 1589 1590 1590 1590
1555 1557 1559 1562 1563 1565 1567 1568 1569 1571 1573 1574 1575 1576 1576 1576 1576 1577 1578 1578 1579 1580 1581 1581 1581 1582 1582 1583 1583 1583 1583 1584 1584 1584 1585 1585 1585 1585 1586 1586 1586 1587 1587
1551 1554 1556 1558 1560 1562 1564 1565 1567 1568 1570 1571 1572 1573 1574 1574 1575 1575 1576 1576 1576 1577 1578 1579 1580 1580 1579 1580 1580 1580 1580 1581 1581 1582 1582 1582 1582 1582 1583 1583 1583 1583 1583
1548 1550 1552 1555 1556 1559 1560 1562 1564 1565 1567 1568 1569 1571 1572 1572 1573 1573 1573 1574 1574 1575 1575 1575 1576 1577 1577 1577 1577 1577 1577 1578 1578 1579 1579 1579 1579 1579 1579 1579 1580 1580 1580
1544 1546 1548 1550 1553 1555 1557 1558 1560 1562 1563 1565 1566 1568 1569 1570 1570 1571 1571 1571 1572 1572 1572 1573 1573 1574 1574 1574 1574 1574 1574 1575 1575 1575 1576 1576 1576 1576 1576 1576 1576 1576 1577
1539 1542 1544 1546 1549 1551 1553 1555 1556 1558 1560 1561 1562 1564 1566 1567 1568 1568 1569 1569 1569 1569 1569 1570 1570 1570 1571 1571 1571 1570 1570 1571 1572 1572 1572 1572 1573 1573 1573 1573 1573 1573 1573
1535 1538 1540 1542 1544 1547 1549 1551 1553 1555 1556 1557 1559 1560 1562 1563 1564 1565 1566 1566 1566 1566 1566 1567 1567 1567 1567 1567 1567 1566 1567 1567 1567 1568 1568 1568 1569 1569 1569 1569 1569 1569 1569
1531 1533 1535 1538 1540 1542 1545 1547 1549 1550 1552 1553 1555 1556 1557 1559 1560 1561 1562 1563 1564 1563 1563 1563 1564 1564 1563 1563 1563 1563 1563 1563 1563 1563 1564 1564 1564 1564 1565 1565 1565 1565 1565
1526 1529 1531 1533 1536 1538 1540 1542 1544 1546 1547 1548 1550 1551 1553 1555 1556 1557 1558 1559 1560 1561 1560 1560 1560 1560 1559 1560 1559 1558 1559 1558 1558 1559 1559 1559 1560 1560 1560 1560 1560 1560 1560
1522 1524 1526 1529 1531 1533 1536 1538 1540 1542 1543 1544 1546 1547 1548 1550 1552 1553 1554 1555 1555 1556 1556 1557 1556 1556 1554 1555 1555 1554 1555 1554 1555 1554 1554 1554 1554 1555 1555 1555 1554 1554 1554
1518 1520 1522 1524 1527 1530 1532 1534 1536 1537 1538 1540 1541 1543 1544 1546 1547 1548 1549 1550 1551 1552 1552 1552 1552 1552 1551 1550 1550 1550 1551 1551 1551 1550 1549 1549 1549 1549 1549 1549 1549 1548 1548
1515 1517 1519 1521 1523 1526 1528 1530 1532 1533 1534 1535 1537 1539 1540 1542 1543 1544 1545 1546 1547 1548 1548 1548 1548 1548 1547 1547 1546 1546 1546 1545 1546 1545 1544 1543 1543 1543 1542 1542 1542 1542 1542
1512 1514 1516 1517 1519 1522 1524 1526 1528 1529 1530 1531 1533 1535 1536 1537 1538 1539 1541 1541 1543 1543 1544 1544 1544 1543 1543 1542 1542 1542 1542 1541 1541 1541 1539 1538 1537 1537 1536 1536 1536 1535 1535
1510 1511 1513 1515 1517 1519 1521 1522 1524 1525 1526 1528 1529 1531 1532 1533 1534 1535 1537 1538 1539 1540 1540 1540 1540 1540 1539 1539 1538 1538 1538 1537 1535 1535 1534 1534 1533 1531 1530 1529 1528 1528 1528
1508 1509 1511 1512 1514 1516 1518 1519 1521 1522 1523 1524 1525 1527 1528 1529 1530 1531 1532 1533 1535 1535 1536 1536 1536 1535 1534 1534 1534 1533 1533 1532 1531 1531 1529 1528 1528 1526 1525 1524 1522 1522 1521
1506 1508 1509 1510 1512 1514 1515 1517 1518 1520 1521 1521 1523 1524 1525 1526 1527 1528 1528 1529 1530 1530 1531 1531 1531 1531 1531 1530 1529 1529 1528 1527 1526 1525 1524 1523 1522 1521 1520 1519 1516 1516 1515
1506 1507 1508 1509 1511 1513 1514 1515 1516 1517 1518 1519 1520 1521 1522 1523 1523 1524 1525 1526 1526 1526 1527 1527 1527 1527 1527 1526 1525 1525 1524 1523 1521 1521 1520 1519 1518 1516 1515 1514 1511 1510 1509
1505 1507 1508 1510 1511 1512 1513 1514 1515 1515 1516 1517 1518 1519 1519 1520 1520 1521 1522 1522 1523 1523 1523 1523 1523 1523 1522 1522 1522 1522 1521 1520 1519 1518 1516 1515 1513 1512 1510 1508 1507 1504 1503
1505 1507 1508 1510 1511 1512 1513 1514 1514 1514 1515 1515 1516 1517 1517 1518 1518 1518 1519 1520 1520 1521 1521 1521 1521 1520 1520 1519 1518 1518 1518 1517 1516 1515 1513 1511 1509 1508 1505 1504 1502 1500 1498